Location: Fredericton
(45.9636°N, 66.6431°W)
Time: 20:48:27
(UTC-03:00)

ISS - Visible Passes

Search period start: 21 June 2021 00:00
Search period end: 01 July 2021 00:00
Orbit: 417 x 422 km, 51.6° (Epoch: 21 June)

Date Brightness Start Highest point End Pass type
(mag) Time Alt. Az. Time Alt. Az. Time Alt. Az.
26 Jun -1.1 04:40:06 10° SSE 04:41:06 11° SE 04:42:06 10° ESE visible
28 Jun -2.3 04:39:40 10° SSW 04:42:35 27° SE 04:45:31 10° E visible
29 Jun -1.7 03:53:59 15° SSE 03:55:17 18° SE 03:57:38 10° E visible
30 Jun -1.2 03:08:14 11° SE 03:08:14 11° SE 03:09:04 10° ESE visible
30 Jun -3.7 04:41:11 12° SW 04:44:17 69° SSE 04:47:38 10° ENE visible
